User: anonymous   Login
Location: Cincinnati Observatory Center
(39.1389°N, 84.4225°W)
Time: 08:21:03
(UTC-04:00)
Language:

JAS-1B - Orbit

View from above orbital plane
View from above orbital plane
View from above satellite
View from above satellite

Ground track
Ground track

The orbit data is extracted from the following two-line orbital elements,

1 20480U 90013C   15213.56732928 -.00000014  00000-0  33990-4 0  9995
2 20480 099.0621 105.2458 0540664 144.7044 296.5878 12.83406341193771
Epoch (UTC): 01 August 2015 13:36:57
Eccentricity: 0.0540664
inclination: 99.0621°
perigee height: 911 km
apogee height: 1744 km
right ascension of ascending node: 105.2458°
argument of perigee: 144.7044°
revolutions per day: 12.83406341
mean anomaly at epoch: 296.5878°
orbit number at epoch: 19377

The dashed part of the orbit path shows where the satellite is in the earth's shadow,  

DLR